SKYSAT-C5

Last updated on Wed Nov 05 2025 00:02:30 GMT+0000 (Coordinated Universal Time)

1 41772U 16058C 25308.56807238 .00011609 00000+0 33263-3 0 9994 2 41772 97.0825 353.7979 0003272 197.5320 162.5813 15.36052835509309
UTC large
Height (km)
Speed (km/s)
/
Latitude / Longitude
Inclination (degrees)
Orbital Period (minutes)
Azimuth
Elevation
Range (km)
Doppler Factor

Next 0 passes for location: London (51.5072 / 0.1276)

Sorry there are no passes over London.